This is the latest recevied weather packets stored in our database for station/object KO6HRZ. If no packets are shown the sender has not sent any weather packets the latest 10 day(s).
| Time | Temp. | Humidity | Pressure | Rain* | Wind** | Luminosity | Snow |
|---|---|---|---|---|---|---|---|
| 1788248042 | 14.44° C | 83% | 1011.3 hPa | 0 mm | - | 0 W/m² | - |
| 1788247437 | 15° C | 82% | 1011.3 hPa | 0 mm | - | 0 W/m² | - |
| 1788246836 | 15° C | 82% | 1011.2 hPa | 0 mm | - | 0 W/m² | - |
| 1788246232 | 15° C | 81% | 1011.4 hPa | 0 mm | - | 0 W/m² | - |
| 1788245631 | 15° C | 81% | 1011.4 hPa | 0 mm | - | 0 W/m² | - |
| 1788245029 | 15.56° C | 81% | 1011.2 hPa | 0 mm | - | 0 W/m² | - |
| 1788244428 | 15.56° C | 81% | 1011.2 hPa | 0 mm | - | 0 W/m² | - |
| 1788243826 | 15.56° C | 80% | 1011.2 hPa | 0 mm | - | 0 W/m² | - |
| 1788243222 | 15.56° C | 80% | 1011.4 hPa | 0 mm | - | 0 W/m² | - |
| 1788242619 | 15° C | 81% | 1011.4 hPa | 0 mm | - | 0 W/m² | - |
| 1788242015 | 15.56° C | 81% | 1011.2 hPa | 0 mm | - | 0 W/m² | - |
| 1788241430 | 15.56° C | 80% | 1011.2 hPa | 0 mm | - | 0 W/m² | - |
| 1788240811 | 15.56° C | 80% | 1011.1 hPa | 0 mm | - | 0 W/m² | - |
| 1788240208 | 15.56° C | 80% | 1011.2 hPa | 0 mm | - | 0 W/m² | - |
| 1788239607 | 16.11° C | 79% | 1011.1 hPa | 0 mm | - | 0 W/m² | - |
| 1788239004 | 16.11° C | 79% | 1011.1 hPa | 0 mm | - | 0 W/m² | - |
| 1788238399 | 16.11° C | 79% | 1011.1 hPa | 0 mm | - | 0 W/m² | - |
| 1788237796 | 16.11° C | 78% | 1011.1 hPa | 0 mm | - | 0 W/m² | - |
| 1788237193 | 16.67° C | 78% | 1011.1 hPa | 0 mm | - | 0 W/m² | - |
| 1788236593 | 16.67° C | 77% | 1010.9 hPa | 0 mm | - | 0 W/m² | - |
| 1788235990 | 16.67° C | 77% | 1010.8 hPa | 0 mm | - | 0 W/m² | - |
| 1788235389 | 16.67° C | 77% | 1010.7 hPa | 0 mm | - | 0 W/m² | - |
| 1788234787 | 16.67° C | 76% | 1010.5 hPa | 0 mm | - | 0 W/m² | - |
| 1788234187 | 17.22° C | 76% | 1010.4 hPa | 0 mm | - | 0 W/m² | - |
| 1788233587 | 17.22° C | 76% | 1010.1 hPa | 0 mm | - | 0 W/m² | - |
* Rain latest hour (hover to see other rain measurements)
** Current wind speed in m/s (hover to see current wind gust speed)